Regional Weather Roundup
Issued by NWS Memphis, TN

Home | Current Version | Previous Version | Text Only | Print | Product List | Glossary On
Versions: 1 2 3 4 5 6 7 8 9 10 11 12 13 14 15 16 17 18 19 20 21 22 23 24 25 26 27 28 29 30 31 32 33 34 35 36 37 38 39 40 41 42 43 44 45 46 47 48 49 50
000
ASUS44 KMEG 211110
RWRMEG
MEMPHIS CWA HOURLY WEATHER ROUNDUP
NATIONAL WEATHER SERVICE MEMPHIS TN
500 AM CST WED FEB 21 2018

...WEST TENNESSEE...

CITY           SKY/WX    TMP DP  RH WIND       PRES   REMARKS
MEMPHIS INTL   RAIN      59  57  93 N12       30.20R FOG
NWS MEMPHIS      N/A     58 N/A N/A MISG        N/A
JACKSON        LGT RAIN  59  58  96 N18G24    30.21R
COVINGTON      CLOUDY    57  55  94 N7G13     30.22R
SOMERVILLE     CLOUDY    61  57  88 N12G20    30.20R
BOLIVAR        CLOUDY    70  64  83 SW7G16    30.18R
LEXINGTON      CLOUDY    70  64  83 S17G25    30.17R
SELMER         CLOUDY    70  64  83 S12G20    30.19R
SAVANNAH       CLOUDY    70  64  83 S12       30.20R
DYERSBURG      LGT RAIN  48  47  96 N10       30.23R
UNION CITY     CLOUDY    48  48 100 N12       30.22R
PARIS          CLOUDY    57  55  94 N10G18    30.21R


...EASTERN ARKANSAS...

CITY           SKY/WX    TMP DP  RH WIND       PRES   REMARKS
JONESBORO      RAIN      47  46  97 N13       30.27R
WEST MEMPHIS   HVY RAIN  58  32  37 N9        30.21R
BATESVILLE     LGT RAIN  40  39  97 NW3       30.32R FOG
NEWPORT        RAIN      42  41  96 N21       30.28R
WALNUT RIDGE   LGT RAIN  42  41  96 N14       30.29R
BLYTHEVILLE    LGT RAIN  48  32  53 N20       30.25R
SEARCY         HVY RAIN  45  45 100 N17G24    30.26R
STUTTGART      HVY RAIN  55  55 100 N18       30.21R
PINE BLUFF     TSTM      58  57  97 N10       30.21R FOG
MONTICELLO     FAIR      69  64  84 S5        30.14R


...NORTH MISSISSIPPI...

CITY           SKY/WX    TMP DP  RH WIND       PRES   REMARKS
TUPELO         FAIR      68  64  87 SE12      30.21S
OXFORD         CLOUDY    68  64  88 S13       30.19F
BATESVILLE       N/A    N/A N/A N/A MISG        N/A
TUNICA         LGT RAIN  59  55  88 N20G28    30.18R
CLARKSDALE     CLOUDY    70  70 100 S12       30.17R
CORINTH        MOCLDY    70  64  83 S12       30.20R
GREENWOOD      CLOUDY    70  67  90 S9        30.18R
COLUMBUS       MOCLDY    70  70 100 S9        30.23R
STARKVILLE     CLOUDY    68  64  88 SE8       30.24R
GOLDEN TRIANGL CLOUDY    69  67  93 S10       30.23S


...SOUTHEAST MISSOURI...

CITY           SKY/WX    TMP DP  RH WIND       PRES   REMARKS
KENNETT        HVY RAIN  46  46 100 N15G24    30.24R
MALDEN         LGT RAIN  43  41  93 N13       30.28F
WEST PLAINS    CLOUDY    33  31  92 NE9G20    30.30R WCI  25
POPLAR BLUFF   LGT RAIN  41  38  89 N18G28    30.30R
CAPE GIRARDEAU LGT RAIN  37  35  92 N12       30.30S WCI  29


...NORTHWEST ALABAMA...

CITY           SKY/WX    TMP DP  RH WIND       PRES   REMARKS
MUSCLE SHOALS  MOCLDY    70  63  78 S13       30.25R


...MIDDLE TENNESSEE...

CITY           SKY/WX    TMP DP  RH WIND       PRES   REMARKS
NASHVILLE      MOCLDY    71  62  73 S20G26    30.21R
CLARKSVILLE    CLOUDY    70  60  70 S17G24    30.15R
COLUMBIA       CLOUDY    70  68  94 S15G22    30.20S


...WESTERN KENTUCKY...

CITY           SKY/WX    TMP DP  RH WIND       PRES   REMARKS
PADUCAH        LGT RAIN  42  39  89 N12G21    30.27R
FORT CAMPBELL  LGT RAIN  68  59  73 NW22G41   30.18


...CENTRAL ARKANSAS...

CITY           SKY/WX    TMP DP  RH WIND       PRES   REMARKS
LITTLE ROCK    RAIN      49  49 100 N13       30.22R FOG


SKY/WX REPORTED AS FAIR MEANS FEW OR NO CLOUDS BELOW
12 THOUSAND FEET.




USA.gov is the U.S. government's official web portal to all federal, state and local government web resources and services.